Weather History for Wise, VA

Change the Weather History Date:

Friday, February 8, 2013

  Actual Average Record
Temperature  
Mean Temperature 38 °F -  
Max Temperature 44 °F 42 °F 64 °F (2001)
Min Temperature 32 °F 26 °F -2 °F (2003)
Degree Days  
Heating Degree Days 27    
Moisture  
Dew Point 35 °F    
Average Humidity 90    
Maximum Humidity 100    
Minimum Humidity 76    
Precipitation  
Precipitation 0.01 in - - ()
Sea Level Pressure  
Sea Level Pressure 30.00 in    
Wind  
Wind Speed 8 mph (West)    
Max Wind Speed 20 mph    
Max Gust Speed 25 mph    
Visibility 9 miles    
Events Rain    
Averages and records for this station are not official NWS values.
T = Trace of Precipitation, MM = Missing Value Source: NWS Daily Summary

Daily Weather History Graph

Daily Weather History Graph

Search for Another Location

Airport:

Trip Planner

Search our weather history database for the weather conditions in past years. The results will help you decide how hot, cold, wet, or windy it might be!

Date:

Astronomy

Feb. 08, 2013 Rise Set
Actual Time 7:25 AM EST 6:03 PM EST
Civil Twilight 6:59 AM EST 6:30 PM EST
Nautical Twilight 6:28 AM EST 7:00 PM EST
Astronomical Twilight 5:58 AM EST 7:31 PM EST
Moon 5:52 AM EST (2/8) 4:35 PM EST (2/8)
Length of Visible Light 11h 31m
Length of Day
10h 37m
Waning Crescent, 3% of the Moon is Illuminated
Feb 8
Waning Crescent
Feb 10
New
Feb 17
First Quarter
Feb 25
Full
Mar 4
Last Quarter

Hourly Weather History & Observations

Time (EST) Temp. Windchill Dew Point Humidity Pressure Visibility Wind Dir Wind Speed Gust Speed Precip Events Conditions
12:15 AM 42.8 °F - 37.4 °F 81% 29.93 in 10.0 mi Calm Calm - N/A   Overcast
12:35 AM 42.8 °F 39.3 °F 37.4 °F 81% 29.92 in 10.0 mi South 5.8 mph - N/A   Overcast
12:55 AM 42.8 °F 39.3 °F 37.4 °F 81% 29.92 in 10.0 mi South 5.8 mph - N/A   Overcast
1:15 AM 42.8 °F 38.0 °F 37.4 °F 81% 29.91 in 10.0 mi SSE 8.1 mph - N/A   Overcast
1:55 AM 41.0 °F 37.1 °F 37.4 °F 87% 29.90 in 10.0 mi SSE 5.8 mph - N/A   Overcast
2:15 AM 41.0 °F 38.0 °F 37.4 °F 87% 29.90 in 10.0 mi South 4.6 mph - N/A   Overcast
2:35 AM 41.0 °F 38.0 °F 37.4 °F 87% 29.90 in 10.0 mi South 4.6 mph - N/A   Overcast
2:55 AM 42.8 °F 39.3 °F 37.4 °F 81% 29.89 in 10.0 mi South 5.8 mph - N/A   Overcast
3:15 AM 42.8 °F 39.3 °F 37.4 °F 81% 29.89 in 10.0 mi SSE 5.8 mph - N/A Rain Light Rain
3:35 AM 42.8 °F 38.6 °F 37.4 °F 81% 29.89 in 10.0 mi South 6.9 mph - N/A Rain Light Rain
3:55 AM 41.0 °F 37.1 °F 37.4 °F 87% 29.89 in 10.0 mi South 5.8 mph - N/A Rain Light Rain
4:35 AM 41.0 °F 36.4 °F 39.2 °F 93% 29.88 in 10.0 mi South 6.9 mph - N/A   Overcast
4:55 AM 42.8 °F 38.6 °F 39.2 °F 87% 29.88 in 10.0 mi South 6.9 mph - N/A   Overcast
5:15 AM 42.8 °F 38.6 °F 37.4 °F 81% 29.88 in 10.0 mi South 6.9 mph - N/A   Overcast
5:35 AM 42.8 °F 38.6 °F 37.4 °F 81% 29.87 in 10.0 mi South 6.9 mph - N/A   Overcast
6:15 AM 41.0 °F 36.4 °F 37.4 °F 87% 29.88 in 10.0 mi South 6.9 mph - N/A   Overcast
6:35 AM 41.0 °F 37.1 °F 37.4 °F 87% 29.87 in 10.0 mi South 5.8 mph - N/A   Overcast
6:55 AM 41.0 °F 37.1 °F 37.4 °F 87% 29.87 in 10.0 mi South 5.8 mph - N/A   Overcast
7:15 AM 41.0 °F 37.1 °F 39.2 °F 93% 29.87 in 10.0 mi South 5.8 mph - N/A   Overcast
7:35 AM 41.0 °F 36.4 °F 41.0 °F 100% 29.88 in 10.0 mi South 6.9 mph - N/A   Overcast
7:55 AM 41.0 °F 38.0 °F 41.0 °F 100% 29.88 in 4.0 mi SSW 4.6 mph - N/A Rain Light Rain
8:15 AM 41.0 °F 38.0 °F 41.0 °F 100% 29.88 in 7.0 mi SSW 4.6 mph - N/A   Overcast
8:35 AM 41.0 °F 35.2 °F 41.0 °F 100% 29.90 in 5.0 mi WSW 9.2 mph - N/A   Overcast
8:55 AM 41.0 °F 35.8 °F 41.0 °F 100% 29.90 in 7.0 mi WSW 8.1 mph - N/A Rain Light Rain
9:15 AM 41.0 °F 34.7 °F 41.0 °F 100% 29.90 in 5.0 mi WSW 10.4 mph - N/A Rain Light Rain
9:35 AM 41.0 °F 35.2 °F 41.0 °F 100% 29.90 in 4.0 mi WSW 9.2 mph - N/A   Overcast
9:55 AM 42.8 °F 38.6 °F 42.8 °F 100% 29.91 in 4.0 mi WSW 6.9 mph - N/A   Overcast
10:15 AM 42.8 °F 38.0 °F 42.8 °F 100% 29.92 in 4.0 mi WSW 8.1 mph - N/A Rain Light Rain
10:35 AM 42.8 °F 38.0 °F 42.8 °F 100% 29.93 in 5.0 mi WSW 8.1 mph - 0.01 in   Overcast
10:55 AM 42.8 °F 34.3 °F 42.8 °F 100% 29.94 in 3.0 mi West 19.6 mph 25.3 mph 0.01 in Rain Light Rain
11:15 AM 42.8 °F 36.2 °F 42.8 °F 100% 29.94 in 4.0 mi West 12.7 mph 21.9 mph N/A   Overcast
11:35 AM 44.6 °F 37.8 °F 42.8 °F 93% 29.95 in 10.0 mi WNW 15.0 mph 21.9 mph N/A   Overcast
11:55 AM 44.6 °F 40.2 °F 42.8 °F 93% 29.95 in 10.0 mi NW 8.1 mph 18.4 mph N/A   Overcast
12:15 PM 44.6 °F 39.7 °F 42.8 °F 93% 29.95 in 10.0 mi NW 9.2 mph 18.4 mph N/A   Overcast
12:35 PM 44.6 °F 38.1 °F 39.2 °F 81% 29.96 in 10.0 mi NNW 13.8 mph 21.9 mph N/A   Overcast
12:55 PM 42.8 °F 36.2 °F 37.4 °F 81% 29.96 in 10.0 mi NW 12.7 mph 21.9 mph N/A   Overcast
1:15 PM 41.0 °F 33.5 °F 35.6 °F 81% 29.97 in 10.0 mi WNW 13.8 mph 23.0 mph N/A   Mostly Cloudy
1:35 PM 41.0 °F 33.5 °F 35.6 °F 81% 29.98 in 10.0 mi WNW 13.8 mph 24.2 mph N/A   Overcast
1:55 PM 41.0 °F 33.9 °F 33.8 °F 76% 29.98 in 10.0 mi NW 12.7 mph 19.6 mph N/A   Overcast
2:15 PM 39.2 °F 31.6 °F 33.8 °F 81% 29.99 in 10.0 mi WNW 12.7 mph 21.9 mph N/A   Overcast
2:35 PM 37.4 °F 30.3 °F 33.8 °F 87% 30.00 in 10.0 mi WNW 10.4 mph 18.4 mph N/A   Overcast
2:55 PM 37.4 °F 28.9 °F 32.0 °F 81% 30.00 in 10.0 mi NW 13.8 mph 23.0 mph N/A   Overcast
3:15 PM 35.6 °F 25.5 °F 32.0 °F 87% 30.01 in 10.0 mi NW 17.3 mph 23.0 mph N/A   Overcast
3:35 PM 35.6 °F 26.2 °F 32.0 °F 87% 30.02 in 10.0 mi NW 15.0 mph 24.2 mph N/A   Overcast
3:55 PM 33.8 °F 23.9 °F 33.8 °F 100% 30.03 in 10.0 mi WNW 15.0 mph 21.9 mph N/A   Overcast
4:15 PM 33.8 °F 23.9 °F 32.0 °F 93% 30.04 in 10.0 mi NW 15.0 mph 20.7 mph N/A   Overcast
4:35 PM 33.8 °F 24.8 °F 32.0 °F 93% 30.05 in 10.0 mi WNW 12.7 mph 20.7 mph N/A   Overcast
4:55 PM 33.8 °F 27.7 °F 30.2 °F 87% 30.05 in 10.0 mi NW 6.9 mph 23.0 mph N/A   Overcast
5:15 PM 32.0 °F 23.0 °F 32.0 °F 100% 30.07 in 10.0 mi WNW 11.5 mph 17.3 mph N/A   Overcast
5:35 PM 32.0 °F 22.5 °F 30.2 °F 93% 30.07 in 10.0 mi NW 12.7 mph 16.1 mph N/A   Overcast
5:55 PM 32.0 °F 24.8 °F 30.2 °F 93% 30.08 in 10.0 mi NNW 8.1 mph 17.3 mph N/A   Overcast
6:15 PM 32.0 °F 23.6 °F 32.0 °F 100% 30.09 in 10.0 mi NW 10.4 mph - N/A   Overcast
6:35 PM 32.0 °F 23.0 °F 32.0 °F 100% 30.10 in 7.0 mi NW 11.5 mph 19.6 mph N/A   Overcast
6:55 PM 32.0 °F 22.5 °F 30.2 °F 93% 30.11 in 10.0 mi NW 12.7 mph 19.6 mph N/A   Overcast
7:15 PM 32.0 °F 23.6 °F 30.2 °F 93% 30.12 in 10.0 mi WNW 10.4 mph 16.1 mph N/A   Overcast
7:35 PM 32.0 °F 22.5 °F 30.2 °F 93% 30.14 in 10.0 mi NW 12.7 mph 17.3 mph N/A   Overcast
7:55 PM 32.0 °F 23.6 °F 30.2 °F 93% 30.14 in 10.0 mi NW 10.4 mph 19.6 mph N/A   Overcast
8:15 PM 32.0 °F 22.5 °F 28.4 °F 87% 30.15 in 10.0 mi NW 12.7 mph 18.4 mph N/A   Overcast
8:35 PM 32.0 °F 24.8 °F 28.4 °F 87% 30.16 in 10.0 mi NW 8.1 mph - N/A   Overcast
8:55 PM 32.0 °F 24.8 °F 28.4 °F 87% 30.17 in 10.0 mi NW 8.1 mph 18.4 mph N/A   Overcast
9:15 PM 32.0 °F 22.5 °F 30.2 °F 93% 30.18 in 10.0 mi West 12.7 mph 18.4 mph N/A   Overcast
9:35 PM 32.0 °F 24.2 °F 28.4 °F 87% 30.19 in 10.0 mi NW 9.2 mph - N/A   Overcast
9:55 PM 32.0 °F 24.2 °F 28.4 °F 87% 30.20 in 7.0 mi NNW 9.2 mph - N/A   Overcast
10:15 PM 32.0 °F 23.6 °F 28.4 °F 87% 30.20 in 10.0 mi NW 10.4 mph 17.3 mph N/A   Overcast
10:35 PM 32.0 °F 24.8 °F 28.4 °F 87% 30.20 in 10.0 mi NW 8.1 mph - N/A   Overcast
10:55 PM 32.0 °F 24.8 °F 28.4 °F 87% 30.20 in 10.0 mi NNW 8.1 mph - N/A   Overcast
11:15 PM 32.0 °F 24.8 °F 28.4 °F 87% 30.20 in 10.0 mi NW 8.1 mph - N/A   Overcast
11:35 PM 32.0 °F 25.6 °F 28.4 °F 87% 30.20 in 10.0 mi NW 6.9 mph - N/A   Overcast
11:55 PM 32.0 °F 25.6 °F 28.4 °F 87% 30.19 in 10.0 mi NW 6.9 mph - N/A   Overcast